�������C�����ː����j�^�v���󋵏��
Date,Time,Cs137(Bq/L),Cs134(Bq/L),�S��(Bq/L)
2018/01/26,00:00,0.92,ND,10
2018/01/26,00:10,0.76,0.025,15
2018/01/26,00:20,0.81,ND,15
2018/01/26,00:30,0.89,ND,16
2018/01/26,00:40,0.90,ND,17
2018/01/26,00:50,0.91,ND,16
2018/01/26,01:00,0.85,0.029,15
2018/01/26,01:10,0.89,ND,13
2018/01/26,01:20,0.82,0.030,16
2018/01/26,01:30,0.85,ND,17
2018/01/26,01:40,0.74,ND,17
2018/01/26,01:50,0.74,ND,17
2018/01/26,02:00,0.73,ND,18
2018/01/26,02:10,0.74,ND,19
2018/01/26,02:20,0.75,ND,18
2018/01/26,02:30,0.76,ND,17
2018/01/26,02:40,0.78,ND,16
2018/01/26,02:50,0.77,ND,18
2018/01/26,03:00,0.87,ND,18
2018/01/26,03:10,0.88,ND,16
2018/01/26,03:20,0.88,ND,16
2018/01/26,03:30,0.87,ND,17
2018/01/26,03:40,0.86,ND,17
2018/01/26,03:50,0.87,ND,15
2018/01/26,04:00,0.87,ND,14
2018/01/26,04:10,0.85,ND,15
2018/01/26,04:20,0.85,ND,15
2018/01/26,04:30,0.83,ND,14
2018/01/26,04:40,0.82,ND,13
2018/01/26,04:50,0.72,ND,11
2018/01/26,05:00,0.66,0.028,12
2018/01/26,05:10,0.72,ND,14
2018/01/26,05:20,0.73,ND,12
2018/01/26,05:30,0.75,ND,10
2018/01/26,05:40,0.78,ND,ND
2018/01/26,05:50,0.77,ND,10
2018/01/26,06:00,0.78,ND,ND
2018/01/26,06:10,0.70,0.037,ND
2018/01/26,06:20,0.74,ND,ND
2018/01/26,06:30,0.70,0.025,11
2018/01/26,06:40,0.72,ND,14
2018/01/26,06:50,0.67,0.026,13
2018/01/26,07:00,0.63,0.034,16
2018/01/26,07:10,0.65,0.025,16
2018/01/26,07:20,0.68,ND,17
2018/01/26,07:30,0.76,ND,17
2018/01/26,07:40,0.63,0.026,16
2018/01/26,07:50,0.65,ND,16
2018/01/26,08:00,0.69,ND,13
2018/01/26,08:10,0.78,ND,13
2018/01/26,08:20,0.63,0.043,13
2018/01/26,08:30,0.64,0.038,12
2018/01/26,08:40,0.70,ND,15
2018/01/26,08:50,0.72,ND,16
2018/01/26,09:00,0.67,0.025,16
2018/01/26,09:10,0.64,0.025,17
2018/01/26,09:20,0.62,0.027,18
2018/01/26,09:30,0.63,0.031,18
2018/01/26,09:40,0.65,ND,15
2018/01/26,09:50,0.65,ND,15
2018/01/26,10:00,0.65,ND,14
2018/01/26,10:10,0.67,ND,10
2018/01/26,10:20,0.67,ND,8.8
2018/01/26,10:30,0.67,ND,8.8
2018/01/26,10:40,0.68,ND,ND
2018/01/26,10:50,0.67,ND,11
2018/01/26,11:00,0.67,ND,9.7
2018/01/26,11:10,0.67,ND,13
2018/01/26,11:20,0.77,ND,14
2018/01/26,11:30,0.61,0.042,11
2018/01/26,11:40,0.62,0.049,11
2018/01/26,11:50,0.62,0.053,9.6
2018/01/26,12:00,0.59,0.057,12
2018/01/26,12:10,0.60,0.053,12
2018/01/26,12:20,0.64,0.036,11
2018/01/26,12:30,0.66,0.031,13
2018/01/26,12:40,0.69,ND,13
2018/01/26,12:50,0.68,ND,12
2018/01/26,13:00,0.68,ND,10
2018/01/26,13:10,0.69,ND,9.9
2018/01/26,13:20,0.67,ND,9.5
2018/01/26,13:30,0.76,ND,10
2018/01/26,13:40,0.67,ND,11
2018/01/26,13:50,0.76,ND,14
2018/01/26,14:00,0.69,ND,16
2018/01/26,14:10,0.69,ND,15
2018/01/26,14:20,0.69,ND,14
2018/01/26,14:30,0.69,ND,13
2018/01/26,14:40,0.70,ND,13
2018/01/26,14:50,0.66,0.040,11
2018/01/26,15:00,0.66,0.045,12
2018/01/26,15:10,0.68,0.043,15
2018/01/26,15:20,0.68,0.054,17
2018/01/26,15:30,0.68,0.057,15
2018/01/26,15:40,0.69,0.058,14
2018/01/26,15:50,0.72,0.053,14
2018/01/26,16:00,0.72,0.049,11
2018/01/26,16:10,0.86,0.025,ND
2018/01/26,16:20,0.89,ND,ND
2018/01/26,16:30,0.92,ND,9.0
2018/01/26,16:40,0.80,0.054,9.3
2018/01/26,16:50,0.77,0.060,9.9
2018/01/26,17:00,0.86,0.027,ND
2018/01/26,17:10,0.83,0.031,11
2018/01/26,17:20,0.83,0.035,12
2018/01/26,17:30,0.82,0.035,10
2018/01/26,17:40,0.81,0.033,12
2018/01/26,17:50,0.82,0.029,9.5
2018/01/26,18:00,0.81,0.036,11
2018/01/26,18:10,0.80,0.026,11
2018/01/26,18:20,0.79,0.026,11
2018/01/26,18:30,0.81,ND,11
2018/01/26,18:40,0.79,ND,9.3
2018/01/26,18:50,0.68,0.047,11
2018/01/26,19:00,0.68,0.035,10
2018/01/26,19:10,0.65,0.037,9.6
2018/01/26,19:20,0.65,0.035,9.5
2018/01/26,19:30,0.72,ND,9.5
2018/01/26,19:40,0.73,ND,10
2018/01/26,19:50,0.71,ND,10
2018/01/26,20:00,0.70,ND,8.8
2018/01/26,20:10,0.73,ND,ND
2018/01/26,20:20,0.73,ND,ND
2018/01/26,20:30,0.74,ND,8.8
2018/01/26,20:40,0.74,ND,9.3
2018/01/26,20:50,0.74,ND,10
2018/01/26,21:00,0.75,ND,12
2018/01/26,21:10,0.73,ND,14
2018/01/26,21:20,0.72,ND,14
2018/01/26,21:30,0.71,ND,14
2018/01/26,21:40,0.71,ND,16
2018/01/26,21:50,0.72,ND,14
2018/01/26,22:00,0.71,ND,16
2018/01/26,22:10,0.72,ND,15
2018/01/26,22:20,0.74,ND,14
2018/01/26,22:30,0.74,ND,11
2018/01/26,22:40,0.73,ND,10
2018/01/26,22:50,0.73,ND,11
2018/01/26,23:00,0.73,ND,10
2018/01/26,23:10,0.72,ND,12
2018/01/26,23:20,0.67,ND,13
2018/01/26,23:30,0.66,ND,15
2018/01/26,23:40,0.66,ND,10
2018/01/26,23:50,0.65,ND,12
